| time (UTC) | temp F | wind direction | speed MPH | gust MPH | rain 1hr in | rain 24hr in | rain mn in | humidity % | barometer mb |
| 20260508124508 | 54 | 0 | 0.0 | 0.0 | 0.00 | 0.00 | 0.00 | 49 | 1005.7 |
| 20260508124007 | 53 | 0 | 0.0 | 0.0 | 0.00 | 0.00 | 0.00 | 47 | 1005.7 |
| 20260508123007 | 52 | 0 | 0.0 | 0.0 | 0.00 | 0.00 | 0.00 | 51 | 1005.7 |
| 20260508121507 | 50 | 0 | 0.0 | 0.0 | 0.00 | 0.00 | 0.00 | 54 | 1005.8 |
| 20260508121007 | 49 | 0 | 0.0 | 0.0 | 0.00 | 0.00 | 0.00 | 52 | 1005.9 |
| 20260508120507 | 49 | 0 | 0.0 | 0.0 | 0.00 | 0.00 | 0.00 | 54 | 1005.9 |
| 20260508114007 | 46 | 0 | 0.0 | 0.0 | 0.00 | 0.00 | 0.00 | 58 | 1005.8 |
| 20260508113507 | 46 | 0 | 0.0 | 0.0 | 0.00 | 0.00 | 0.00 | 59 | 1005.8 |
| 20260508113007 | 45 | 0 | 0.0 | 0.0 | 0.00 | 0.00 | 0.00 | 59 | 1005.8 |
| 20260508111507 | 43 | 0 | 0.0 | 0.0 | 0.00 | 0.00 | 0.00 | 61 | 1005.8 |
| 20260508111007 | 43 | 0 | 0.0 | 0.0 | 0.00 | 0.00 | 0.00 | 62 | 1005.7 |
| 20260508110507 | 42 | 0 | 0.0 | 0.0 | 0.00 | 0.00 | 0.00 | 64 | 1005.7 |
| 20260508110007 | 42 | 0 | 0.0 | 0.0 | 0.00 | 0.00 | 0.00 | 65 | 1005.7 |
| 20260508104507 | 40 | 0 | 0.0 | 0.0 | 0.00 | 0.00 | 0.00 | 71 | 1005.6 |
| 20260508104007 | 39 | 0 | 0.0 | 0.0 | 0.00 | 0.00 | 0.00 | 72 | 1005.5 |
| 20260508103508 | 39 | 0 | 0.0 | 0.0 | 0.00 | 0.00 | 0.00 | 72 | 1005.5 |
| 20260508103006 | 39 | 0 | 0.0 | 0.0 | 0.00 | 0.00 | 0.00 | 73 | 1005.5 |
| 20260508101507 | 38 | 0 | 0.0 | 0.0 | 0.00 | 0.00 | 0.00 | 76 | 1005.3 |
| 20260508101006 | 38 | 0 | 0.0 | 0.0 | 0.00 | 0.00 | 0.00 | 77 | 1005.3 |
| 20260508094507 | 38 | 0 | 0.0 | 0.0 | 0.00 | 0.00 | 0.00 | 78 | 1005.0 |
| 20260508094007 | 38 | 0 | 0.0 | 0.0 | 0.00 | 0.00 | 0.00 | 77 | 1005.0 |
| 20260508093506 | 39 | 0 | 0.0 | 0.0 | 0.00 | 0.00 | 0.00 | 75 | 1004.9 |
| 20260508093007 | 39 | 0 | 0.0 | 0.0 | 0.00 | 0.00 | 0.00 | 73 | 1004.9 |
| 20260508091506 | 40 | 0 | 0.0 | 0.0 | 0.00 | 0.00 | 0.00 | 72 | 1004.8 |
| 20260508091006 | 40 | 0 | 0.0 | 0.0 | 0.00 | 0.00 | 0.00 | 71 | 1004.7 |
| 20260508090506 | 39 | 0 | 0.0 | 0.0 | 0.00 | 0.00 | 0.00 | 73 | 1004.7 |
| 20260508090006 | 39 | 0 | 0.0 | 0.0 | 0.00 | 0.00 | 0.00 | 73 | 1004.6 |
| 20260508084006 | 39 | 0 | 0.0 | 0.0 | 0.00 | 0.00 | 0.00 | 75 | 1004.1 |
| 20260508083506 | 39 | 0 | 0.0 | 0.0 | 0.00 | 0.00 | 0.00 | 75 | 1004.1 |
| 20260508083006 | 39 | 0 | 0.0 | 0.0 | 0.00 | 0.00 | 0.00 | 74 | 1004.0 |
| 20260508081506 | 38 | 0 | 0.0 | 0.0 | 0.00 | 0.00 | 0.00 | 77 | 1004.1 |
| 20260508081007 | 38 | 0 | 0.0 | 0.0 | 0.00 | 0.00 | 0.00 | 75 | 1004.0 |
| 20260508080506 | 38 | 0 | 0.0 | 0.0 | 0.00 | 0.00 | 0.00 | 75 | 1004.0 |
| 20260508073506 | 38 | 0 | 0.0 | 0.0 | 0.00 | 0.00 | 0.00 | 76 | 1003.9 |
| 20260508073006 | 38 | 0 | 0.0 | 0.0 | 0.00 | 0.00 | 0.00 | 77 | 1003.9 |
| 20260508071506 | 39 | 0 | 0.0 | 0.0 | 0.00 | 0.00 | 0.00 | 78 | 1003.9 |
| 20260508071005 | 39 | 0 | 0.0 | 0.0 | 0.00 | 0.00 | 0.00 | 78 | 1003.9 |
| 20260508064506 | 40 | 0 | 0.0 | 0.0 | 0.00 | 0.00 | 0.00 | 72 | 1003.8 |
| 20260508064006 | 40 | 0 | 0.0 | 0.0 | 0.00 | 0.00 | 0.00 | 72 | 1003.8 |
| 20260508063506 | 41 | 0 | 0.0 | 0.0 | 0.00 | 0.00 | 0.00 | 73 | 1003.8 |
| 20260508063007 | 41 | 0 | 0.0 | 0.0 | 0.00 | 0.00 | 0.00 | 72 | 1003.9 |
| 20260508061506 | 41 | 0 | 0.0 | 0.0 | 0.00 | 0.00 | 0.00 | 72 | 1004.0 |
| 20260508060506 | 41 | 0 | 0.0 | 0.0 | 0.00 | 0.00 | 0.00 | 72 | 1004.1 |
| 20260508060006 | 40 | 0 | 0.0 | 0.0 | 0.00 | 0.00 | 0.00 | 76 | 1004.1 |
| 20260508054506 | 41 | 0 | 0.0 | 0.0 | 0.00 | 0.00 | 0.00 | 76 | 1004.2 |
| 20260508054005 | 41 | 0 | 0.0 | 0.0 | 0.00 | 0.00 | 0.00 | 74 | 1004.2 |
| 20260508053505 | 41 | 0 | 0.0 | 0.0 | 0.00 | 0.00 | 0.00 | 74 | 1004.2 |
| 20260508053006 | 41 | 0 | 0.0 | 0.0 | 0.00 | 0.00 | 0.00 | 73 | 1004.2 |
| 20260508051005 | 42 | 0 | 0.0 | 0.0 | 0.00 | 0.00 | 0.00 | 72 | 1004.5 |
| 20260508050505 | 43 | 0 | 0.0 | 0.0 | 0.00 | 0.00 | 0.00 | 72 | 1004.5 |
| 20260508050005 | 43 | 0 | 0.0 | 0.0 | 0.00 | 0.00 | 0.00 | 71 | 1004.5 |
| 20260508044505 | 45 | 0 | 0.0 | 0.0 | 0.00 | 0.00 | 0.00 | 67 | 1004.6 |
| 20260508044005 | 45 | 0 | 0.0 | 0.0 | 0.00 | 0.00 | 0.00 | 66 | 1004.6 |
| 20260508043505 | 46 | 0 | 0.0 | 0.0 | 0.00 | 0.00 | 0.00 | 63 | 1004.6 |
| 20260508043005 | 46 | 0 | 0.0 | 0.0 | 0.00 | 0.00 | 0.00 | 64 | 1004.6 |
| 20260508041505 | 46 | 0 | 0.0 | 0.0 | 0.00 | 0.00 | 0.00 | 64 | 1004.6 |
| 20260508041005 | 46 | 0 | 0.0 | 0.0 | 0.00 | 0.00 | 0.00 | 65 | 1004.5 |
| 20260508040505 | 47 | 0 | 0.0 | 0.0 | 0.00 | 0.00 | 0.00 | 64 | 1004.5 |
| 20260508040005 | 47 | 0 | 0.0 | 0.0 | 0.00 | 0.27 | 0.00 | 63 | 1004.6 |
| 20260508034505 | 48 | 0 | 0.0 | 0.0 | 0.00 | 0.27 | 0.00 | 56 | 1004.7 |
| 20260508033005 | 48 | 0 | 0.0 | 0.0 | 0.00 | 0.27 | 0.00 | 60 | 1004.6 |
| 20260508031505 | 49 | 0 | 0.0 | 0.0 | 0.00 | 0.27 | 0.00 | 51 | 1004.6 |
| 20260508031005 | 49 | 0 | 0.0 | 0.0 | 0.00 | 0.27 | 0.00 | 52 | 1004.6 |
| 20260508030504 | 49 | 0 | 0.0 | 0.0 | 0.00 | 0.27 | 0.00 | 53 | 1004.5 |
| 20260508030005 | 48 | 0 | 0.0 | 0.0 | 0.00 | 0.27 | 0.00 | 52 | 1004.5 |
| 20260508024505 | 48 | 0 | 0.0 | 0.0 | 0.00 | 0.28 | 0.00 | 56 | 1004.7 |
| 20260508023504 | 49 | 0 | 0.0 | 0.0 | 0.00 | 0.28 | 0.00 | 56 | 1004.5 |
| 20260508023005 | 49 | 0 | 0.0 | 0.0 | 0.00 | 0.28 | 0.00 | 56 | 1004.5 |
| 20260508021504 | 50 | 0 | 0.0 | 0.0 | 0.00 | 0.28 | 0.00 | 51 | 1004.2 |
| 20260508021005 | 50 | 0 | 0.0 | 0.0 | 0.00 | 0.28 | 0.00 | 51 | 1004.2 |
| 20260508020505 | 50 | 0 | 0.0 | 0.0 | 0.00 | 0.28 | 0.00 | 53 | 1004.2 |
| 20260508020004 | 49 | 0 | 0.0 | 0.0 | 0.00 | 0.28 | 0.00 | 55 | 1004.1 |
| 20260508014504 | 49 | 0 | 0.0 | 0.0 | 0.00 | 0.28 | 0.00 | 60 | 1003.8 |
| 20260508014004 | 50 | 0 | 0.0 | 0.0 | 0.00 | 0.28 | 0.00 | 58 | 1003.7 |
| 20260508013504 | 50 | 0 | 0.0 | 0.0 | 0.00 | 0.28 | 0.00 | 56 | 1003.6 |
| 20260508013005 | 50 | 0 | 0.0 | 0.0 | 0.00 | 0.28 | 0.00 | 53 | 1003.5 |
| 20260508011504 | 50 | 0 | 0.0 | 0.0 | 0.00 | 0.28 | 0.00 | 52 | 1003.4 |
| 20260508011005 | 50 | 0 | 0.0 | 0.0 | 0.00 | 0.28 | 0.00 | 54 | 1003.4 |
| 20260508010504 | 50 | 0 | 0.0 | 0.0 | 0.00 | 0.28 | 0.00 | 54 | 1003.3 |
| 20260508010004 | 51 | 0 | 0.0 | 0.0 | 0.00 | 0.28 | 0.00 | 54 | 1003.3 |
| 20260508004504 | 52 | 0 | 0.0 | 0.0 | 0.00 | 0.28 | 0.00 | 51 | 1003.1 |
| 20260508003005 | 54 | 0 | 0.0 | 0.0 | 0.00 | 0.28 | 0.00 | 46 | 1003.0 |
| 20260508001504 | 55 | 0 | 0.0 | 0.0 | 0.00 | 0.28 | 0.00 | 42 | 1002.6 |
| 20260508001004 | 56 | 0 | 0.0 | 0.0 | 0.00 | 0.28 | 0.00 | 42 | 1002.6 |
| 20260508000504 | 56 | 0 | 0.0 | 0.0 | 0.00 | 0.28 | 0.00 | 41 | 1002.5 |
| 20260508000004 | 56 | 0 | 0.0 | 0.0 | 0.00 | 0.29 | 0.00 | 41 | 1002.5 |
| 20260507234504 | 57 | 0 | 0.0 | 0.0 | 0.00 | 0.29 | 0.00 | 40 | 1002.4 |
| 20260507234004 | 57 | 0 | 0.0 | 0.0 | 0.00 | 0.29 | 0.00 | 40 | 1002.4 |
| 20260507233504 | 57 | 0 | 0.0 | 0.0 | 0.00 | 0.29 | 0.00 | 38 | 1002.4 |
| 20260507233004 | 58 | 0 | 0.0 | 0.0 | 0.00 | 0.29 | 0.00 | 39 | 1002.4 |
| 20260507231504 | 59 | 0 | 0.0 | 0.0 | 0.00 | 0.29 | 0.00 | 39 | 1002.3 |
| 20260507231004 | 59 | 0 | 0.0 | 0.0 | 0.00 | 0.29 | 0.00 | 37 | 1002.2 |
| 20260507230503 | 59 | 0 | 0.0 | 0.0 | 0.00 | 0.29 | 0.00 | 37 | 1002.2 |
| 20260507230010 | 59 | 0 | 0.0 | 0.0 | 0.00 | 0.29 | 0.00 | 37 | 1002.1 |
| 20260507224010 | 60 | 0 | 0.0 | 0.0 | 0.00 | 0.29 | 0.00 | 35 | 1001.8 |
| 20260507223510 | 61 | 0 | 0.0 | 0.0 | 0.00 | 0.29 | 0.00 | 35 | 1001.8 |
| 20260507223010 | 61 | 0 | 0.0 | 0.0 | 0.00 | 0.29 | 0.00 | 35 | 1001.7 |
| 20260507221510 | 62 | 0 | 0.0 | 0.0 | 0.00 | 0.32 | 0.00 | 35 | 1001.6 |
| 20260507221011 | 62 | 0 | 0.0 | 0.0 | 0.00 | 0.32 | 0.00 | 35 | 1001.6 |
| 20260507220510 | 62 | 0 | 0.0 | 0.0 | 0.00 | 0.34 | 0.00 | 36 | 1001.6 |
| 20260507220010 | 62 | 0 | 0.0 | 0.0 | 0.00 | 0.34 | 0.00 | 36 | 1001.5 |
| 20260507213509 | 62 | 0 | 0.0 | 0.0 | 0.00 | 0.36 | 0.00 | 37 | 1001.6 |
| 20260507213009 | 62 | 0 | 0.0 | 0.0 | 0.00 | 0.37 | 0.00 | 37 | 1001.6 |
| 20260507211509 | 63 | 0 | 0.0 | 0.0 | 0.00 | 0.40 | 0.00 | 36 | 1001.6 |
| 20260507211010 | 63 | 0 | 0.0 | 0.0 | 0.00 | 0.40 | 0.00 | 37 | 1001.6 |
| 20260507210509 | 63 | 0 | 0.0 | 0.0 | 0.00 | 0.42 | 0.00 | 37 | 1001.5 |
| 20260507210010 | 63 | 0 | 0.0 | 0.0 | 0.00 | 0.42 | 0.00 | 36 | 1001.5 |
| 20260507204510 | 63 | 0 | 0.0 | 0.0 | 0.00 | 0.44 | 0.00 | 38 | 1001.3 |
| 20260507204009 | 63 | 0 | 0.0 | 0.0 | 0.00 | 0.45 | 0.00 | 37 | 1001.5 |
| 20260507203510 | 63 | 0 | 0.0 | 0.0 | 0.00 | 0.45 | 0.00 | 37 | 1001.2 |
| 20260507203010 | 63 | 0 | 0.0 | 0.0 | 0.00 | 0.46 | 0.00 | 36 | 1001.3 |
| 20260507201509 | 63 | 0 | 0.0 | 0.0 | 0.00 | 0.49 | 0.00 | 36 | 1001.4 |
| 20260507201009 | 63 | 0 | 0.0 | 0.0 | 0.00 | 0.50 | 0.00 | 36 | 1001.5 |
| 20260507200510 | 63 | 0 | 0.0 | 0.0 | 0.00 | 0.50 | 0.00 | 36 | 1001.4 |
| 20260507200009 | 63 | 0 | 0.0 | 0.0 | 0.00 | 0.50 | 0.00 | 35 | 1001.4 |
| 20260507194509 | 63 | 0 | 0.0 | 0.0 | 0.00 | 0.50 | 0.00 | 35 | 1001.6 |
| 20260507194009 | 63 | 0 | 0.0 | 0.0 | 0.00 | 0.52 | 0.00 | 35 | 1001.5 |
| 20260507193509 | 62 | 0 | 0.0 | 0.0 | 0.00 | 0.52 | 0.00 | 36 | 1001.6 |
| 20260507193009 | 63 | 0 | 0.0 | 0.0 | 0.00 | 0.53 | 0.00 | 37 | 1001.7 |
| 20260507191509 | 65 | 0 | 0.0 | 0.0 | 0.00 | 0.54 | 0.00 | 36 | 1001.8 |
| 20260507191009 | 65 | 0 | 0.0 | 0.0 | 0.00 | 0.55 | 0.00 | 37 | 1001.8 |
| 20260507190509 | 65 | 0 | 0.0 | 0.0 | 0.00 | 0.57 | 0.00 | 35 | 1001.8 |
| 20260507190008 | 64 | 0 | 0.0 | 0.0 | 0.00 | 0.57 | 0.00 | 36 | 1001.8 |
| 20260507184509 | 63 | 0 | 0.0 | 0.0 | 0.00 | 0.58 | 0.00 | 38 | 1001.9 |
| 20260507184009 | 64 | 0 | 0.0 | 0.0 | 0.00 | 0.58 | 0.00 | 39 | 1001.9 |
| 20260507183009 | 63 | 0 | 0.0 | 0.0 | 0.00 | 0.59 | 0.00 | 38 | 1001.8 |
| 20260507181009 | 63 | 0 | 0.0 | 0.0 | 0.00 | 0.59 | 0.00 | 42 | 1001.9 |
| 20260507180509 | 62 | 0 | 0.0 | 0.0 | 0.00 | 0.59 | 0.00 | 42 | 1002.0 |
| 20260507180009 | 63 | 0 | 0.0 | 0.0 | 0.00 | 0.59 | 0.00 | 44 | 1001.9 |
| 20260507174509 | 62 | 0 | 0.0 | 0.0 | 0.00 | 0.59 | 0.00 | 51 | 1002.1 |
| 20260507174008 | 62 | 0 | 0.0 | 0.0 | 0.00 | 0.59 | 0.00 | 50 | 1002.1 |
| 20260507173509 | 61 | 0 | 0.0 | 0.0 | 0.00 | 0.59 | 0.00 | 52 | 1002.1 |
| 20260507173009 | 61 | 0 | 0.0 | 0.0 | 0.00 | 0.59 | 0.00 | 52 | 1002.1 |
| 20260507171508 | 63 | 0 | 0.0 | 0.0 | 0.00 | 0.59 | 0.00 | 48 | 1002.3 |
| 20260507171009 | 62 | 0 | 0.0 | 0.0 | 0.00 | 0.59 | 0.00 | 49 | 1002.3 |
| 20260507170509 | 62 | 0 | 0.0 | 0.0 | 0.00 | 0.59 | 0.00 | 51 | 1002.5 |
| 20260507170008 | 62 | 0 | 0.0 | 0.0 | 0.00 | 0.59 | 0.00 | 49 | 1002.5 |
| 20260507164509 | 62 | 0 | 0.0 | 0.0 | 0.00 | 0.59 | 0.00 | 49 | 1002.4 |
| 20260507163508 | 60 | 0 | 0.0 | 0.0 | 0.00 | 0.59 | 0.00 | 52 | 1002.6 |
| 20260507163009 | 60 | 0 | 0.0 | 0.0 | 0.00 | 0.59 | 0.00 | 54 | 1002.7 |
| 20260507161008 | 61 | 0 | 0.0 | 0.0 | 0.00 | 0.59 | 0.00 | 53 | 1002.6 |
| 20260507160008 | 63 | 0 | 0.0 | 0.0 | 0.00 | 0.59 | 0.00 | 48 | 1002.8 |
| 20260507154507 | 61 | 0 | 0.0 | 0.0 | 0.00 | 0.59 | 0.00 | 53 | 1003.1 |
| 20260507153508 | 63 | 0 | 0.0 | 0.0 | 0.00 | 0.59 | 0.00 | 48 | 1003.0 |
| 20260507153008 | 63 | 0 | 0.0 | 0.0 | 0.00 | 0.59 | 0.00 | 47 | 1003.1 |
| 20260507151507 | 62 | 0 | 0.0 | 0.0 | 0.00 | 0.59 | 0.00 | 51 | 1003.2 |
| 20260507151008 | 62 | 0 | 0.0 | 0.0 | 0.00 | 0.59 | 0.00 | 51 | 1003.2 |
| 20260507150508 | 62 | 0 | 0.0 | 0.0 | 0.00 | 0.59 | 0.00 | 51 | 1003.2 |
| 20260507150008 | 62 | 0 | 0.0 | 0.0 | 0.00 | 0.59 | 0.00 | 51 | 1003.2 |
| 20260507144508 | 62 | 0 | 0.0 | 0.0 | 0.00 | 0.59 | 0.00 | 49 | 1003.1 |
| 20260507144008 | 62 | 0 | 0.0 | 0.0 | 0.00 | 0.59 | 0.00 | 50 | 1003.1 |
| 20260507143508 | 61 | 0 | 0.0 | 0.0 | 0.00 | 0.59 | 0.00 | 50 | 1003.1 |
| 20260507141507 | 60 | 0 | 0.0 | 0.0 | 0.00 | 0.59 | 0.00 | 57 | 1003.2 |
| 20260507141008 | 60 | 0 | 0.0 | 0.0 | 0.00 | 0.59 | 0.00 | 54 | 1003.2 |
| 20260507140509 | 60 | 0 | 0.0 | 0.0 | 0.00 | 0.59 | 0.00 | 56 | 1003.3 |
| 20260507140008 | 59 | 0 | 0.0 | 0.0 | 0.00 | 0.59 | 0.00 | 60 | 1003.4 |
| 20260507134508 | 58 | 0 | 0.0 | 0.0 | 0.00 | 0.59 | 0.00 | 59 | 1003.6 |
| 20260507133508 | 58 | 0 | 0.0 | 0.0 | 0.00 | 0.59 | 0.00 | 59 | 1003.7 |
| 20260507133008 | 58 | 0 | 0.0 | 0.0 | 0.00 | 0.59 | 0.00 | 65 | 1003.7 |
| 20260507131507 | 56 | 0 | 0.0 | 0.0 | 0.00 | 0.59 | 0.00 | 66 | 1003.8 |
| 20260507131008 | 56 | 0 | 0.0 | 0.0 | 0.00 | 0.59 | 0.00 | 69 | 1003.8 |
| 20260507130507 | 56 | 0 | 0.0 | 0.0 | 0.00 | 0.59 | 0.00 | 69 | 1003.9 |
| 20260507130007 | 55 | 0 | 0.0 | 0.0 | 0.00 | 0.59 | 0.00 | 69 | 1004.0 |